Temp
51 51 50 49 48 48 47 46 45 45 45 46 47 46 46 45 44 44 43 44 43 42 42 42 41 43 45 47 47 47 44 44 40 45 49 51 50 50 52 53 54 54 55
52 50 48 48 48 46 46 45 45 45 46 46 47 46 46 45 44 44 43 43 42 41 41 41 40 43 42 45 46 45 45 45 43 41 46 47 48 50 50 50 52 55 55
50 49 48 46 46 45 45 45 45 45 45 46 46 45 45 45 44 44 44 43 42 41 41 40 40 40 41 44 44 43 46 46 46 43 43 47 47 49 49 51 51 51 54
49 48 46 46 45 45 45 45 45 45 45 45 45 45 44 44 44 44 44 43 41 42 41 41 41 41 41 43 45 44 45 44 44 43 43 43 45 47 48 45 46 50 50
48 47 46 45 45 45 45 45 45 45 45 45 45 44 44 44 47 45 44 43 41 41 41 41 42 44 48 47 46 45 43 43 43 42 41 42 43 43 42 45 44 46 48
48 48 47 45 45 44 44 44 44 44 44 44 44 44 43 45 46 47 48 43 42 40 39 41 41 43 44 46 45 46 46 42 40 39 40 40 41 42 43 43 42 41 40
48 48 47 46 46 45 45 44 44 43 43 43 43 43 43 43 44 46 47 45 42 41 40 40 41 44 43 42 43 45 45 45 45 42 39 40 40 42 42 41 41 41 41
47 48 48 47 46 46 44 43 43 43 43 43 43 43 43 44 45 45 46 44 42 41 41 40 39 39 41 43 43 42 42 42 43 45 43 42 43 45 43 43 42 42 43
47 47 48 47 46 45 44 43 43 42 42 42 43 43 42 44 44 44 44 43 41 41 41 41 40 42 43 44 42 40 39 39 44 44 45 45 44 44 45 43 40 41 42
47 48 48 47 46 45 44 43 43 42 43 44 43 43 43 44 43 43 44 43 40 40 41 41 41 42 42 42 41 39 35 37 38 40 41 42 44 44 45 44 42 40 44
48 48 48 47 46 45 44 43 43 43 42 42 42 43 43 42 42 42 43 43 40 39 40 40 41 40 41 42 41 39 37 40 39 38 39 40 41 42 42 43 43 42 44
47 47 47 47 47 48 44 44 43 42 41 42 41 41 43 43 41 41 42 42 43 39 39 40 39 39 41 41 41 40 40 40 37 37 37 37 39 39 40 41 43 46 48
46 45 46 46 46 46 44 44 43 43 40 41 40 39 39 41 39 40 41 41 42 42 42 41 41 40 40 41 41 40 40 37 36 35 35 36 38 40 40 41 43 50 48
45 45 46 44 46 45 45 44 43 42 42 41 40 39 39 39 39 41 40 40 41 41 42 39 41 40 39 40 40 40 39 37 36 35 35 37 39 39 38 39 41 47 47
46 46 46 47 46 47 47 46 44 43 42 43 43 41 41 41 43 41 41 42 41 40 40 41 40 40 39 39 39 40 39 38 35 36 35 35 36 37 37 38 41 45 45
48 49 48 48 48 48 46 44 41 42 41 40 40 40 43 41 39 39 39 38 38 38 41 39 38 38 37 37 37 37 38 37 36 36 35 35 34 35 36 37 40 42 43
46 47 48 46 46 45 44 44 43 43 42 42 39 40 39 39 38 38 38 37 37 38 39 38 37 37 37 37 37 37 36 37 37 36 36 34 34 35 36 37 37 39 41
48 45 45 45 45 45 46 44 44 41 40 41 41 39 38 38 38 37 37 38 40 39 38 37 37 37 37 37 37 37 37 38 37 36 35 35 35 34 34 35 37 37 39
48 47 47 46 46 46 46 44 43 43 41 40 40 40 38 37 37 37 36 39 37 37 37 37 37 37 37 37 37 38 38 37 36 36 35 34 35 35 34 34 37 36 37
45 43 43 47 45 44 45 43 41 40 40 39 39 40 39 39 40 39 39 38 38 37 37 37 37 37 36 37 37 37 37 37 36 34 34 34 34 35 34 34 36 37 38
44 45 37 43 44 42 41 41 40 40 39 39 39 39 30 38 38 37 37 38 38 37 37 37 37 37 37 37 37 36 37 36 35 34 33 33 34 33 35 35 36 38 40
44 42 43 43 41 40 40 40 40 40 39 39 39 38 30 39 38 38 38 38 39 38 38 37 36 36 37 36 36 36 36 35 35 34 33 33 33 34 35 36 36 37 38
43 43 43 42 41 36 39 40 40 39 39 39 39 39 39 39 38 38 38 39 38 38 38 37 36 36 37 37 37 36 35 36 34 35 32 33 33 33 33 34 35 36 37
43 43 42 41 40 40 40 40 39 35 39 39 39 39 38 38 38 38 38 38 38 38 37 37 37 36 36 35 35 36 37 38 37 35 34 32 32 33 32 32 34 35 37
43 43 42 41 40 40 40 39 39 39 39 39 39 39 39 39 38 38 38 38 37 36 36 36 36 36 36 35 35 35 34 32 34 33 34 33 32 32 32 31 33 35 36
43 43 42 41 39 39 39 38 39 39 39 39 39 38 38 37 38 37 37 37 36 35 35 35 35 36 35 35 34 32 31 31 32 31 33 32 32 32 33 32 33 34 36
MSLP
1024.69 1025.64 1026.24 1026.01 1026.31 1026.16 1026.70 1027.09 1027.53 1026.98 1027.02 1027.18 1027.31 1027.37 1027.28 1026.98 1027.07 1027.08 1026.93 1026.70 1026.49 1026.26 1026.16 1025.92 1025.64 1025.31 1024.83 1024.51 1024.20 1023.72 1023.45 1023.00 1021.84 1020.43 1019.57 1018.34 1017.17 1016.32 1015.84 1015.20 1014.52 1013.69 1012.77
1025.24 1025.55 1025.60 1026.00 1026.15 1026.14 1026.76 1026.87 1027.48 1027.21 1027.13 1027.26 1027.42 1027.49 1027.24 1027.12 1027.09 1027.07 1026.93 1026.82 1026.66 1026.32 1026.25 1025.94 1025.54 1025.18 1024.67 1024.16 1023.76 1023.28 1022.80 1022.10 1021.37 1019.89 1019.10 1017.95 1017.16 1016.14 1015.04 1014.23 1013.48 1012.60 1011.74
1025.17 1025.78 1025.94 1026.11 1026.60 1026.25 1026.57 1027.12 1027.33 1027.39 1027.42 1027.55 1027.42 1027.34 1027.16 1027.15 1027.18 1026.99 1026.76 1026.79 1026.54 1026.31 1026.24 1025.85 1025.27 1024.91 1024.30 1023.68 1023.15 1022.74 1021.99 1021.30 1020.59 1019.61 1018.29 1017.68 1016.77 1015.79 1014.30 1013.37 1012.39 1011.60 1010.85
1025.11 1025.90 1026.26 1026.48 1026.48 1026.69 1027.02 1027.37 1027.34 1027.41 1027.46 1027.65 1027.49 1027.33 1027.25 1027.00 1026.87 1026.83 1026.49 1026.50 1026.31 1026.00 1025.87 1025.46 1024.91 1024.51 1023.87 1023.19 1022.44 1021.96 1021.39 1020.70 1019.91 1018.92 1017.70 1016.81 1016.14 1015.27 1014.37 1013.11 1011.06 1010.68 1009.46
1025.43 1026.16 1026.06 1026.37 1026.68 1026.94 1026.97 1027.11 1027.55 1027.29 1027.31 1027.52 1027.30 1027.12 1027.15 1026.86 1026.24 1026.43 1026.03 1026.10 1025.89 1025.76 1025.46 1024.88 1024.51 1023.96 1023.01 1022.64 1022.06 1021.40 1020.86 1019.92 1019.13 1018.16 1016.92 1015.81 1014.84 1014.17 1013.67 1012.81 1011.73 1010.19 1008.16
1025.37 1026.10 1025.93 1026.17 1026.60 1026.93 1027.08 1027.02 1027.25 1027.39 1027.43 1027.24 1026.99 1026.79 1026.61 1026.27 1026.19 1025.87 1025.58 1025.49 1025.38 1025.39 1024.90 1024.37 1024.02 1023.45 1022.91 1022.13 1021.76 1021.12 1020.38 1019.44 1018.53 1017.71 1016.41 1015.33 1013.96 1013.40 1012.64 1011.78 1010.90 1010.01 1007.42
1025.23 1026.11 1025.84 1026.29 1026.61 1026.87 1026.92 1026.97 1026.98 1027.16 1027.08 1026.67 1026.45 1026.34 1026.06 1025.96 1025.72 1025.39 1025.06 1025.00 1024.99 1024.75 1024.45 1024.01 1023.57 1022.87 1022.33 1021.73 1021.10 1020.35 1019.56 1018.87 1018.17 1017.17 1015.95 1014.90 1013.38 1012.59 1011.66 1010.53 1009.97 1009.05 1007.47
1025.68 1025.82 1025.84 1026.31 1026.33 1026.46 1026.64 1026.81 1026.70 1026.57 1026.39 1026.12 1025.81 1025.81 1025.76 1025.10 1024.99 1024.74 1024.53 1024.57 1024.64 1024.35 1023.94 1023.42 1023.02 1022.43 1021.86 1021.19 1020.32 1019.47 1018.71 1017.97 1017.15 1016.31 1015.41 1014.02 1012.92 1011.70 1011.03 1009.69 1008.63 1007.43 1006.05
1025.64 1025.63 1025.73 1025.81 1025.93 1026.07 1026.33 1026.35 1026.11 1026.04 1025.84 1025.69 1025.62 1025.35 1025.23 1024.50 1024.28 1024.20 1024.08 1024.18 1024.06 1023.79 1023.37 1022.82 1022.42 1021.86 1021.34 1020.71 1019.93 1018.97 1018.00 1017.03 1016.22 1015.39 1014.37 1013.07 1011.76 1010.64 1009.62 1008.38 1007.28 1006.05 1003.94
1025.07 1025.15 1025.11 1025.29 1025.43 1025.66 1025.61 1025.63 1025.63 1025.59 1025.42 1025.24 1024.97 1024.59 1024.35 1024.12 1023.66 1023.69 1023.49 1023.59 1023.50 1023.26 1022.87 1022.24 1021.89 1021.42 1020.86 1020.35 1019.65 1018.78 1017.64 1016.62 1015.61 1014.16 1012.96 1011.74 1010.55 1009.25 1008.13 1007.22 1006.05 1004.64 1002.93
1024.49 1024.68 1024.95 1024.68 1024.54 1024.68 1025.01 1025.19 1025.08 1025.07 1024.91 1024.65 1024.45 1023.83 1023.58 1023.40 1023.16 1023.17 1022.91 1022.88 1022.85 1022.78 1022.29 1021.92 1021.41 1020.82 1020.36 1019.84 1019.19 1018.48 1017.65 1016.37 1015.08 1014.01 1012.44 1010.89 1009.45 1008.17 1006.86 1005.58 1004.38 1003.36 1001.54
1024.18 1024.42 1024.41 1024.19 1024.16 1024.20 1024.50 1024.41 1024.49 1024.48 1024.38 1024.04 1023.90 1023.46 1022.92 1022.78 1022.79 1022.46 1022.31 1022.29 1022.28 1022.27 1021.72 1021.40 1020.86 1020.26 1019.87 1019.34 1018.60 1017.94 1017.02 1016.03 1014.95 1013.59 1012.13 1010.50 1008.79 1007.17 1005.74 1004.24 1002.42 1000.49 999.40
1023.91 1023.90 1023.67 1023.59 1023.50 1023.55 1023.76 1023.70 1023.69 1023.71 1023.79 1023.62 1023.52 1023.15 1022.65 1022.22 1022.19 1022.11 1021.95 1021.99 1021.84 1021.66 1021.30 1020.94 1020.37 1019.81 1019.40 1018.85 1018.22 1017.54 1016.62 1015.82 1014.76 1013.47 1012.12 1010.57 1009.05 1007.29 1005.42 1003.30 1000.93 998.11 997.95
1023.17 1022.98 1023.06 1023.14 1022.88 1022.84 1022.96 1023.08 1023.15 1023.33 1023.48 1023.43 1023.17 1022.89 1022.48 1022.21 1021.95 1021.72 1021.74 1021.70 1021.44 1021.16 1020.76 1020.38 1020.01 1019.55 1019.09 1018.51 1017.89 1017.22 1016.48 1015.73 1014.80 1013.68 1012.32 1010.77 1009.03 1007.06 1005.19 1003.37 1000.96 998.31 997.86
1022.40 1022.23 1022.28 1022.10 1022.04 1022.01 1022.20 1022.37 1022.57 1022.48 1022.86 1023.15 1022.92 1022.75 1022.80 1022.03 1021.65 1021.62 1021.64 1021.50 1021.27 1020.92 1020.53 1020.17 1019.70 1019.17 1018.65 1018.06 1017.56 1017.00 1016.23 1015.39 1014.56 1013.62 1012.32 1010.82 1009.22 1007.52 1005.58 1003.90 1001.70 999.59 998.50
1021.66 1021.45 1021.49 1021.46 1021.41 1021.47 1021.54 1021.75 1021.86 1022.00 1022.14 1022.22 1022.24 1022.33 1022.27 1021.94 1021.63 1021.44 1021.23 1021.01 1020.76 1020.47 1020.22 1020.06 1019.60 1019.11 1018.58 1017.97 1017.32 1016.69 1016.05 1015.36 1014.50 1013.57 1012.54 1011.29 1009.88 1008.33 1006.51 1004.59 1002.91 1001.28 1000.08
1020.95 1020.96 1020.90 1020.74 1020.91 1021.10 1021.20 1021.50 1021.71 1021.76 1021.82 1021.80 1021.98 1021.82 1021.97 1021.79 1021.50 1021.31 1021.11 1020.85 1020.60 1020.45 1020.29 1019.99 1019.59 1019.10 1018.57 1017.97 1017.27 1016.65 1015.96 1015.30 1014.58 1013.68 1012.82 1011.74 1010.50 1009.09 1007.48 1005.90 1004.48 1003.06 1001.63
1020.48 1020.54 1020.72 1020.51 1020.42 1020.38 1020.74 1021.13 1021.45 1021.69 1021.75 1021.75 1021.78 1021.79 1021.69 1021.55 1021.45 1021.28 1021.08 1020.82 1020.65 1020.44 1020.30 1019.99 1019.55 1019.09 1018.55 1017.93 1017.21 1016.51 1015.89 1015.28 1014.62 1013.95 1013.12 1012.27 1011.21 1010.05 1008.55 1007.12 1005.87 1004.68 1003.58
1020.09 1019.99 1020.02 1020.25 1020.33 1020.30 1020.61 1021.08 1021.36 1021.54 1021.70 1021.86 1021.82 1021.59 1021.67 1021.53 1021.41 1021.29 1021.18 1021.12 1020.85 1020.53 1020.24 1019.88 1019.51 1018.98 1018.46 1017.88 1017.19 1016.53 1015.86 1015.34 1014.91 1014.18 1013.56 1012.80 1011.88 1010.92 1009.70 1008.59 1007.14 1006.17 1005.22
1020.00 1019.94 1020.01 1020.07 1020.40 1020.67 1020.88 1021.09 1021.48 1021.70 1021.81 1021.87 1021.88 1021.84 1021.80 1021.63 1021.49 1021.40 1021.28 1021.13 1020.80 1020.47 1020.15 1019.76 1019.33 1018.85 1018.38 1017.79 1017.12 1016.51 1015.79 1015.27 1014.94 1014.46 1013.86 1013.17 1012.39 1011.44 1010.62 1009.57 1008.45 1007.35 1006.31
1020.12 1020.08 1020.35 1020.44 1020.66 1020.90 1021.17 1021.36 1021.64 1021.79 1021.82 1021.84 1021.83 1021.79 1021.81 1021.69 1021.48 1021.28 1021.10 1020.85 1020.58 1020.28 1019.93 1019.57 1019.14 1018.66 1018.21 1017.70 1017.10 1016.53 1015.84 1015.35 1014.97 1014.68 1014.18 1013.42 1012.74 1011.95 1011.04 1010.24 1009.32 1008.35 1007.49
1020.18 1020.34 1020.44 1020.53 1020.79 1021.08 1021.32 1021.41 1021.56 1021.70 1021.77 1021.77 1021.67 1021.60 1021.57 1021.43 1021.24 1021.02 1020.79 1020.53 1020.27 1020.04 1019.71 1019.33 1018.87 1018.44 1018.03 1017.57 1017.02 1016.49 1015.83 1015.27 1014.96 1014.65 1014.31 1013.61 1012.89 1012.34 1011.61 1010.81 1009.98 1009.14 1008.36
1020.43 1020.51 1020.56 1020.71 1020.89 1021.24 1021.43 1021.46 1021.55 1021.61 1021.55 1021.49 1021.40 1021.25 1021.20 1021.11 1020.97 1020.74 1020.49 1020.21 1019.95 1019.65 1019.33 1018.98 1018.52 1018.02 1017.60 1017.25 1016.83 1016.41 1015.81 1015.11 1014.89 1014.67 1014.21 1013.57 1012.96 1012.39 1012.01 1011.33 1010.64 1009.95 1009.20
1020.42 1020.50 1020.62 1020.84 1021.08 1021.23 1021.31 1021.37 1021.40 1021.34 1021.25 1021.13 1021.02 1020.94 1020.88 1020.80 1020.65 1020.40 1020.14 1019.90 1019.61 1019.26 1018.97 1018.55 1018.10 1017.65 1017.19 1016.82 1016.43 1016.05 1015.62 1015.06 1014.81 1014.38 1014.05 1013.51 1012.94 1012.47 1012.17 1011.67 1011.03 1010.41 1009.75
1020.36 1020.37 1020.51 1020.62 1020.70 1020.85 1020.99 1021.03 1021.03 1020.96 1020.86 1020.76 1020.68 1020.61 1020.51 1020.38 1020.20 1019.96 1019.77 1019.57 1019.30 1018.92 1018.51 1018.11 1017.63 1017.16 1016.70 1016.29 1015.96 1015.58 1015.32 1015.14 1014.73 1014.29 1013.68 1013.32 1012.90 1012.40 1012.08 1011.73 1011.17 1010.57 1010.01
1019.94 1020.02 1019.90 1020.04 1020.27 1020.42 1020.37 1020.39 1020.45 1020.51 1020.44 1020.32 1020.28 1020.25 1020.20 1020.04 1019.83 1019.64 1019.46 1019.26 1018.94 1018.53 1018.06 1017.61 1017.12 1016.68 1016.20 1015.74 1015.42 1015.31 1015.02 1014.67 1014.24 1013.90 1013.48 1012.92 1012.51 1012.09 1011.81 1011.49 1011.15 1010.74 1010.30
Wind_Speed
8 6 6 6 5 5 5 4 3 3 4 3 2 4 4 4 4 5 6 7 8 9 8 9 9 8 6 6 7 6 7 8 11 12 13 17 20 18 16 16 18 16 15
5 6 7 5 5 6 4 4 2 4 3 3 0 3 4 4 5 4 5 6 7 9 9 8 9 7 9 9 8 10 9 10 10 15 14 14 18 19 19 18 14 16 17
5 5 6 5 4 5 5 3 1 1 2 2 2 2 2 3 4 4 5 6 6 7 8 8 9 9 9 9 10 10 9 9 11 12 14 11 12 15 18 17 18 17 15
5 4 5 5 4 3 3 2 1 1 1 0 1 1 2 3 3 3 4 5 6 7 7 7 9 9 11 13 11 10 10 11 12 12 13 13 11 12 12 15 17 14 15
5 4 5 5 4 4 3 2 3 3 3 3 3 3 3 3 3 4 4 4 5 7 8 8 8 12 19 15 11 12 14 11 11 13 13 15 13 11 12 11 14 17 17
6 4 4 5 4 5 4 4 4 4 5 4 4 5 5 3 7 8 6 4 6 7 9 9 9 14 13 20 19 21 20 15 17 13 13 16 21 14 13 12 13 14 20
5 4 4 4 6 6 5 4 5 6 5 6 6 5 6 6 10 9 10 4 6 8 9 9 9 9 15 13 16 22 22 25 24 17 17 16 20 18 18 17 16 15 17
4 5 4 5 5 4 4 6 6 4 5 5 6 6 7 7 11 10 10 5 6 9 9 10 9 11 12 15 16 16 17 16 17 13 15 18 19 20 20 18 19 19 18
5 5 5 5 5 4 6 6 5 4 4 5 6 7 6 9 9 11 8 5 7 9 9 10 9 10 15 21 16 17 18 17 18 25 29 30 31 31 28 15 13 14 16
6 6 6 6 5 6 5 5 4 4 6 4 7 6 8 9 10 10 10 4 6 6 8 10 14 13 17 20 15 15 16 17 19 21 18 19 21 20 28 17 13 15 15
6 5 5 5 6 6 4 3 4 5 5 6 6 7 7 7 8 11 11 4 4 6 7 8 8 15 16 19 21 12 15 21 19 15 14 14 14 14 13 14 15 14 14
4 5 6 6 5 3 6 6 5 4 5 6 5 6 6 4 7 8 8 6 8 4 7 8 8 14 15 18 17 22 24 21 11 11 12 13 14 15 15 17 21 18 13
5 8 7 6 6 5 5 7 4 4 4 5 4 4 6 4 4 7 7 7 9 7 6 10 14 12 13 12 18 23 22 11 11 11 12 13 13 15 19 18 19 16 12
8 8 7 7 9 6 5 5 4 3 3 4 4 4 4 4 4 3 2 3 8 8 10 8 10 11 11 12 12 12 11 10 11 11 11 13 13 14 15 15 15 9 4
8 9 9 8 8 8 5 5 4 4 3 4 6 3 6 4 3 2 3 5 5 6 8 3 6 7 9 8 9 10 10 10 11 10 11 13 13 14 13 15 14 10 6
9 7 7 6 5 4 3 3 8 7 3 2 8 9 6 9 9 9 8 9 7 7 2 4 7 8 9 9 9 9 10 13 10 10 11 11 12 13 14 14 13 12 9
6 7 5 4 4 3 3 3 2 3 3 6 7 4 8 8 5 5 6 7 6 4 3 6 7 8 9 9 9 8 9 10 12 10 11 11 12 12 15 13 13 13 13
3 7 4 4 5 3 3 1 1 1 2 2 4 2 5 6 6 6 6 4 5 3 4 6 8 8 9 9 9 9 9 10 10 11 12 11 11 12 12 13 12 14 11
4 4 2 2 2 2 3 3 2 1 1 2 3 3 5 7 6 5 4 3 4 5 6 7 7 8 8 8 9 8 9 9 9 10 11 11 11 11 11 11 11 14 12
3 4 2 2 3 2 1 3 2 1 1 2 2 2 3 3 4 4 4 4 5 5 7 8 8 8 8 8 9 8 8 9 8 8 10 11 11 11 10 11 10 10 10
1 1 4 3 3 3 2 3 2 0 2 2 3 3 3 2 4 4 4 5 5 6 8 8 8 8 7 8 8 8 8 7 8 7 9 9 10 10 11 9 9 10 10
1 3 2 3 3 4 3 3 1 0 1 3 3 3 3 3 4 4 5 6 6 6 7 8 8 7 7 8 8 8 10 8 8 7 9 9 9 9 9 9 10 9 9
2 2 2 2 3 4 3 2 2 2 2 3 3 4 4 4 5 5 6 6 6 7 8 8 8 8 8 8 7 8 9 9 6 9 10 10 9 8 8 9 9 8 8
2 2 2 2 3 3 3 3 4 5 4 3 3 4 4 5 6 7 7 6 7 8 8 8 8 11 10 9 7 8 8 7 8 9 11 10 9 8 8 8 7 8 7
2 3 3 4 5 5 4 5 5 5 5 4 4 4 5 5 6 6 6 6 8 9 10 10 8 11 13 14 12 12 10 9 9 10 8 9 10 10 7 6 7 7 8
4 5 5 5 5 6 5 4 5 5 6 5 5 5 5 6 6 6 6 8 9 10 12 9 11 15 15 12 12 11 11 11 10 9 9 8 8 7 6 6 7 5 5
Wind_Direction
140 142 143 112 111 96 78 74 59 74 56 79 58 26 12 16 2 8 359 3 0 354 351 349 335 324 307 310 298 283 270 264 276 285 294 303 304 306 302 301 298 292 290
156 148 132 121 114 99 83 75 61 59 58 58 50 13 354 349 347 341 347 346 350 348 339 337 327 323 307 313 302 293 278 276 276 292 297 300 301 303 299 296 291 294 287
143 145 131 124 125 95 70 71 92 81 69 68 57 14 347 334 330 320 333 332 336 330 323 322 317 313 302 304 289 290 294 297 292 290 296 296 297 298 302 298 301 297 287
131 143 149 161 151 140 141 138 178 199 144 294 278 327 297 302 302 296 320 324 323 322 315 310 311 310 301 296 304 296 291 294 293 293 296 297 293 290 293 301 301 297 293
130 169 172 167 168 171 172 182 241 243 231 241 252 255 271 277 290 296 317 308 312 313 311 310 306 307 324 320 311 309 300 296 300 298 297 303 298 296 290 287 286 296 290
144 185 162 164 185 208 213 212 229 254 255 244 250 257 275 282 283 297 314 303 310 308 314 314 309 311 309 317 314 309 304 305 300 295 297 299 301 299 296 292 289 288 293
140 188 171 187 212 223 220 230 243 250 246 255 266 271 273 265 274 281 296 303 308 307 305 304 308 307 313 309 305 310 302 300 294 292 293 291 296 298 297 290 289 276 273
177 191 192 200 211 229 226 239 249 247 256 272 277 269 273 273 267 276 289 296 295 294 294 295 293 298 302 313 316 312 308 302 297 292 290 291 288 291 290 286 288 278 270
203 212 223 219 229 219 230 241 248 253 267 259 256 270 262 280 274 272 281 278 291 294 299 299 300 300 304 318 319 315 312 306 304 301 296 292 290 289 288 285 283 280 277
209 221 224 213 218 238 242 257 251 234 253 265 284 255 262 266 279 272 277 267 293 299 298 301 299 302 310 317 321 317 313 311 313 308 304 299 300 291 295 282 280 275 272
216 225 241 233 222 226 243 226 245 264 267 270 269 283 272 249 269 267 267 259 284 299 302 295 294 300 310 318 322 319 309 316 312 305 301 301 302 300 300 294 286 268 263
224 237 243 246 235 224 226 248 247 265 267 269 269 285 286 277 246 279 279 279 292 281 291 292 289 295 308 319 326 323 327 326 307 309 311 309 313 313 312 304 297 278 235
232 243 245 243 241 233 230 235 236 230 240 271 274 285 286 296 285 295 288 292 304 304 286 288 300 307 317 321 326 329 334 324 314 317 316 313 314 311 313 312 310 295 211
236 248 256 243 256 244 235 243 256 286 290 275 283 280 285 294 295 294 293 308 314 315 316 310 310 315 311 318 324 325 330 323 321 317 315 312 314 321 325 323 321 317 206
244 251 253 250 253 265 246 241 203 195 189 307 300 311 292 294 280 274 280 305 305 292 302 318 332 332 323 319 323 328 329 329 330 329 324 324 325 328 330 332 334 350 11
261 261 257 261 258 244 236 238 213 206 215 201 299 272 280 255 298 309 311 309 314 343 338 335 333 335 326 320 318 326 332 334 329 330 330 328 329 330 332 337 345 358 7
239 257 259 260 269 247 223 230 261 233 280 258 271 289 233 277 323 338 337 334 3 357 345 336 335 329 328 322 316 321 328 330 330 332 334 331 330 332 337 342 348 358 3
243 235 259 292 254 214 204 190 162 199 281 306 255 328 352 14 3 5 358 354 337 344 337 331 330 329 322 325 321 319 324 332 334 334 337 335 333 336 338 342 351 354 358
274 277 279 258 214 140 129 144 180 271 313 282 310 334 3 355 354 19 35 2 323 321 328 327 326 323 322 317 320 315 321 331 331 332 338 337 336 338 336 340 343 352 354
316 291 203 171 113 121 116 116 112 88 320 303 299 301 327 344 348 332 326 324 319 318 324 323 324 320 320 320 322 318 313 328 333 330 334 334 337 339 338 335 340 349 352
13 97 102 120 129 121 130 122 127 333 331 322 308 290 295 299 318 313 310 316 318 319 324 323 321 317 319 321 324 325 322 323 330 326 330 328 330 338 337 336 337 347 358
129 138 152 142 133 137 149 144 150 210 292 302 310 297 312 304 310 306 303 307 313 311 316 318 315 311 315 319 317 325 322 314 319 327 324 320 324 329 335 337 340 344 353
142 158 144 142 157 151 152 170 210 233 245 272 297 300 297 300 303 302 299 302 308 309 315 315 311 309 314 315 309 316 314 313 323 327 316 319 320 322 326 326 329 337 346
176 170 170 177 180 196 208 222 234 242 247 268 293 300 295 294 298 299 301 306 310 312 312 309 306 307 311 311 309 311 311 316 321 310 307 310 310 311 315 312 314 319 329
215 204 212 214 211 212 227 238 243 249 259 265 281 286 293 297 300 302 305 309 312 313 313 309 305 307 310 311 310 313 318 312 309 307 305 303 300 304 304 302 308 308 318
218 228 226 217 219 226 229 230 248 256 260 261 261 278 290 295 299 300 307 312 313 312 310 306 304 308 309 308 310 316 312 309 306 299 303 294 291 292 295 291 297 286 296